Location: Jackson
(42.2460°N, 84.4010°W)
Time: 08:29:30
(UTC-05:00)

BlueWalker 3 - Pass Details

Date: 20 January 2026
Orbit: 451 x 461 km, 53.2° (Epoch: 13 February)

Event Time Altitude Azimuth Distance (km) Brightness Sun altitude
Rises 19:10:01 0° 219° (SW) 2,443 6.3 -17.1°
Reaches altitude 10° 19:12:10 10° 214° (SW) 1,574 5.1 -17.5°
Maximum altitude 19:15:37 51° 138° (SE) 574 1.9 -18.1°
Enters shadow 19:15:58 48° 115° (ESE) 593 1.9 -18.2°
